This demonstration page uses our WeatherBlox Daily Observations layout. Learn more.

Left ArrowRight Arrow

44.89941, -97.11507

Hourly Observations for September 8, 2018

Temp ( °F °C ) Dew Point ( °F °C ) Humidity (%) Winds ( mph kmh ) Pressure ( in mb ) Visibility ( mi km ) Precip ( " mm )
12:53 am 00:53 Clear 57 13.9 51 10.6 81 81 SE 6 9 30.25 1025 10 16 0.00 0.00
1:53 am 01:53 Clear 54 12.2 50 10 87 87 SSE 3 6 30.26 1025 10 16 0.00 0.00
2:53 am 02:53 Clear 53 11.7 49 9.4 86 86 SSE 6 9 30.24 1024 10 16 0.00 0.00
3:53 am 03:53 Clear 53 11.7 50 10 89 89 SSE 7 11 30.24 1024 10 16 0.00 0.00
4:53 am 04:53 Clear 53 11.7 49 9.4 86 86 SSE 7 11 30.23 1024 10 16 0.00 0.00
5:53 am 05:53 Clear 52 11.1 48 8.9 86 86 SSE 8 13 30.22 1023 10 16 0.00 0.00
8:53 am 08:53 Sunny 56 13.3 52 11.1 87 87 SSE 12 19 30.22 1023 10 16 0.00 0.00
9:53 am 09:53 Sunny 60 15.6 54 12.2 80 80 SSE 15 24 30.21 1023 10 16 0.00 0.00
10:53 am 10:53 Sunny 64 17.8 42 5.6 45 45 S 13 20 30.21 1023 10 16 0.00 0.00
11:53 am 11:53 Sunny 67 19.4 38 3.3 35 35 SSE 17 28 30.19 1022 10 16 0.00 0.00
12:53 pm 12:53 Sunny 70 21.1 39 3.9 32 32 SSE 14 22 30.16 1022 10 16 0.00 0.00
1:53 pm 13:53 Sunny 72 22.2 40 4.4 31 31 SSE 13 20 30.15 1021 10 16 0.00 0.00
2:53 pm 14:53 Sunny 73 22.8 43 6.1 34 34 SSE 14 22 30.13 1020 10 16 0.00 0.00
3:53 pm 15:53 Sunny 73 22.8 46 7.8 38 38 SSE 15 24 30.11 1020 10 16 0.00 0.00
4:53 pm 16:53 Sunny 72 22.2 45 7.2 38 38 SSE 16 26 30.08 1019 10 16 0.00 0.00
5:53 pm 17:53 Sunny 71 21.7 48 8.9 44 44 SE 14 22 30.07 1018 10 16 0.00 0.00
6:53 pm 18:53 Sunny 69 20.6 49 9.4 49 49 SSE 14 22 30.07 1018 10 16 0.00 0.00
7:53 pm 19:53 Sunny 65 18.3 49 9.4 56 56 SE 9 15 30.07 1018 10 16 0.00 0.00
8:53 pm 20:53 Clear 62 16.7 49 9.4 62 62 SE 10 17 30.07 1018 10 16 0.00 0.00
9:53 pm 21:53 Clear 60 15.6 48 8.9 65 65 SE 12 19 30.08 1019 10 16 0.00 0.00
10:53 pm 22:53 Clear 59 15 48 8.9 67 67 SSE 12 19 30.07 1018 10 16 0.00 0.00
11:53 pm 23:53 Clear 57 13.9 49 9.4 74 74 SSE 12 19 30.07 1018 10 16 0.00 0.00

Powered by AerisWeather